Regional Weather Roundup
Issued by NWS Jackson, KY

Home | Current Version | Previous Version | Graphics & Text | Print | Product List | Glossary On
Versions: 1 2 3 4 5 6 7 8 9 10 11 12 13 14 15 16 17 18 19 20 21 22 23 24 25 26 27 28 29 30 31 32 33 34 35 36 37 38 39 40 41 42 43 44 45 46 47 48 49 50
000
ASUS43 KJKL 121710
RWRJKL

EAST KENTUCKY HOURLY WEATHER ROUNDUP
NATIONAL WEATHER SERVICE JACKSON KY
1200 PM EST FRI FEB 12 2016

NOTE: "FAIR" INDICATES FEW OR NO CLOUDS BELOW 12,000 FEET WITH
NO SIGNIFICANT WEATHER AND/OR OBSTRUCTIONS TO VISIBILITY.

* THESE REPORTS ARE NOT UNDER NWS QUALITY CONTROL AND MAY NOT
  REPORT WEATHER SUCH AS PRECIPITATION AND FOG.

KYZ079-080-083-085-087-088-110-112-115-119-120-121800
...EASTERN KENTUCKY...

CITY           SKY/WX    TMP DP  RH WIND       PRES   REMARKS
JACKSON        LGT SNOW  25  17  72 CALM      30.12S
LONDON         SNOW      27  23  85 W6        30.14S VSB 1/2 WCI  20
SOMERSET*      FLURRIES  28  25  86 CALM      30.18F
MONTICELLO*    FLURRIES  30  26  85 W3        30.19R
WILLIAMSBURG*  CLOUDY    28  27  93 CALM      30.15S
MIDDLESBORO*   LGT SNOW  30  28  95 CALM      30.13F
HARLAN APT*    CLOUDY    28  27  93 S3        30.10F
HAZARD APT*    LGT SNOW  23  19  86 CALM      30.13R
BLACK MTN*       N/A     25  23  93 S8          N/A  WCI  16
BIG SANDY*     CLOUDY    29  14  52 CALM      30.11F
MOREHEAD APT*  CLOUDY    27  10  50 NW5       30.16F WCI  21
$$

KYZ035-036-041-042-044-050-067-078-099-121800
...CENTRAL KENTUCKY...

CITY           SKY/WX    TMP DP  RH WIND       PRES   REMARKS
MT STERLING*   CLOUDY    30  18  59 W6        30.15F WCI  24
DANVILLE*      CLOUDY    28  23  80 NW8       30.18S WCI  20
RICHMOND*      CLOUDY    27  21  80 W5        30.15F WCI  21
LEXINGTON      CLOUDY    29  20  69 W7        30.14F WCI  22
FRANKFORT      CLOUDY    30  18  60 VRB7      30.15F WCI  23
$$

KYZ091>093-OHZ055-061-077-WVZ005-015-034-035-042-121800
...SOUTHERN OHIO/WEST VIRGINIA...

CITY           SKY/WX    TMP DP  RH WIND       PRES   REMARKS
COVINGTON      FLURRIES  25  17  72 SW10G17   30.14F WCI  15
COLUMBUS       CLOUDY    20   6  55 S8        30.12F WCI  10
DAYTON         CLOUDY    24  12  60 SW16      30.11F WCI  11
WILMINGTON     LGT SNOW  22  15  75 SW15      30.10F WCI   9
HUNTINGTON     CLOUDY    28  10  46 SW3       30.13F
CHARLESTON     CLOUDY    27  11  51 CALM      30.12F
PINEVILLE*       N/A     30  11  46 MISG      30.11S
BECKLEY        CLOUDY    29  12  49 SW7       30.01F WCI  22
$$

VAZ002-007-008-TNZ017-027-036-066-071-121800
...SOUTHWEST VIRGINIA/EAST TENNESSEE...

CITY           SKY/WX    TMP DP  RH WIND       PRES   REMARKS
BRISTOL        SNOW      29  27  92 CALM      30.09F VSB 1/2
KNOXVILLE      FLURRIES  32  29  88 CALM      30.13F
OAK RIDGE      CLOUDY    33  30  88 S3        30.15F
CROSSVILLE     CLOUDY    35  30  82 NW8       30.12R WCI  29
NASHVILLE      CLOUDY    39  23  52 VRB5      30.21R
$$

...KEY TO REMARKS...
VSB - VISIBILITY IN MILES
WCI - WIND CHILL INDEX
HX  - HEAT INDEX

$$



USA.gov is the U.S. government's official web portal to all federal, state and local government web resources and services.